DC3YC-13 Weather Reports


time (UTC)temp
C
wind
direction
speed
KPH
gust
KPH
rain 1hr
cm
rain 24hr
cm
rain mn
cm
humidity
%
barometer
mb
20260507015633 10 310 0.0 0.0 0.00 0.43 0.00 100 1008.2
20260507014633 10 310 0.0 0.0 0.00 0.43 0.00 99 1007.2
20260507013633 10 315 0.0 0.0 0.00 0.43 0.00 99 1007.2
20260507012633 10 315 0.0 0.0 0.00 0.43 0.00 99 1007.2
20260507011633 10 320 1.6 0.0 0.00 0.43 0.00 99 1007.2
20260507010633 10 310 1.6 0.0 0.00 0.43 0.00 100 1007.2
20260507005634 10 310 8.0 0.0 0.00 0.43 0.00 100 1007.2
20260507004633 10 310 1.6 0.0 0.00 0.43 0.00 100 1007.2
20260507003633 10 320 1.6 0.0 0.00 0.43 0.00 100 1007.2
20260507002633 10 320 1.6 0.0 0.00 0.43 0.00 100 1007.2
20260507001633 10 320 1.6 0.0 0.00 0.43 0.00 100 1007.2
20260507000633 11 320 3.2 0.0 0.00 0.43 0.00 100 1007.2
20260506235633 11 320 11.3 0.0 0.00 0.43 0.00 100 1007.2
20260506234633 11 315 1.6 0.0 0.00 0.43 0.00 100 1007.0
20260506233633 11 315 0.0 0.0 0.00 0.43 0.00 100 1007.0
20260506232633 11 315 6.4 0.0 0.00 0.43 0.00 100 1007.0
20260506231633 11 315 0.0 0.0 0.00 0.43 0.00 100 1007.0
20260506230633 11 315 0.0 0.0 0.00 0.43 0.00 100 1007.0
20260506225633 11 320 0.0 0.0 0.00 0.43 0.00 100 1007.0
20260506224633 11 320 0.0 0.0 0.00 0.43 0.00 100 1007.0
20260506223633 11 310 0.0 0.0 0.00 0.43 0.00 100 1007.0
20260506222633 11 320 1.6 0.0 0.00 0.43 0.00 100 1007.0
20260506221633 11 310 0.0 0.0 0.00 0.43 0.00 100 1007.0
20260506220633 11 310 0.0 0.0 0.00 0.43 0.00 100 1007.0
20260506215633 11 315 0.0 0.0 0.00 0.43 0.36 100 1007.0
20260506214633 11 320 1.6 0.0 0.00 0.43 0.36 100 1007.0
20260506213633 11 320 0.0 0.0 0.00 0.43 0.36 100 1007.0
20260506212633 11 325 0.0 0.0 0.00 0.43 0.36 100 1006.0
20260506211633 11 320 6.4 0.0 0.00 0.43 0.36 100 1006.0
20260506210633 11 320 1.6 0.0 0.00 0.43 0.36 100 1006.0
20260506205633 11 320 6.4 0.0 0.00 0.43 0.36 100 1006.0
20260506204633 12 315 4.8 0.0 0.00 0.43 0.36 100 1006.0
20260506203633 12 325 1.6 0.0 0.00 0.43 0.36 100 1006.0
20260506202633 12 330 1.6 0.0 0.03 0.43 0.36 100 1006.0
20260506201633 12 330 1.6 0.0 0.03 0.43 0.36 100 1006.0
20260506200633 12 330 1.6 0.0 0.03 0.43 0.36 100 1006.0
20260506195633 12 320 0.0 0.0 0.03 0.43 0.36 100 1006.0
20260506194633 12 320 0.0 0.0 0.03 0.43 0.36 100 1004.9
20260506193633 12 320 0.0 0.0 0.03 0.43 0.36 100 1006.0
20260506192633 12 320 0.0 0.0 0.25 0.43 0.36 100 1006.0
20260506191633 12 320 0.0 0.0 0.25 0.43 0.36 100 1004.9
20260506190633 12 320 0.0 0.0 0.25 0.43 0.36 100 1006.0
20260506185633 12 320 3.2 0.0 0.25 0.43 0.33 99 1006.0
20260506184633 12 335 0.0 0.0 0.25 0.43 0.33 99 1004.9
20260506183633 12 335 1.6 0.0 0.25 0.43 0.33 99 1004.9
20260506182633 12 335 3.2 0.0 0.00 0.43 0.33 99 1004.9
20260506181633 12 340 6.4 0.0 0.00 0.43 0.33 98 1004.9
20260506180633 12 340 9.7 0.0 0.00 0.43 0.23 97 1003.9
20260506175633 12 340 6.4 0.0 0.00 0.43 0.08 95 1003.9
20260506174633 12 340 1.6 0.0 0.00 0.43 0.08 94 1003.9
20260506173633 12 345 6.4 0.0 0.00 0.43 0.08 94 1003.9
20260506172633 13 345 0.0 0.0 0.03 0.43 0.08 94 1002.9
20260506171633 13 345 1.6 0.0 0.03 0.43 0.08 93 1002.9
20260506170633 13 350 6.4 0.0 0.03 0.43 0.08 93 1002.9
20260506165633 13 345 3.2 0.0 0.03 0.43 0.08 92 1002.9
20260506164633 13 345 1.6 0.0 0.03 0.43 0.08 91 1002.9
20260506163633 15 345 6.4 0.0 0.03 0.43 0.08 92 1002.9
20260506162633 15 345 0.0 0.0 0.03 0.43 0.08 94 1002.9
20260506161633 15 345 0.0 0.0 0.03 0.43 0.03 93 1002.9
20260506160633 15 350 0.0 0.0 0.03 0.43 0.03 92 1002.9
20260506155633 15 350 0.0 0.0 0.03 0.43 0.03 92 1002.9
20260506154633 15 350 0.0 0.0 0.03 0.43 0.03 92 1002.9
20260506153633 16 350 3.2 0.0 0.03 0.43 0.03 92 1002.9
20260506152633 15 350 0.0 0.0 0.00 0.43 0.00 90 1002.9
20260506151633 16 350 0.0 0.0 0.00 0.43 0.00 90 1002.9
20260506150633 15 355 0.0 0.0 0.00 0.43 0.00 89 1002.9
20260506145633 16 355 0.0 0.0 0.00 0.43 0.00 87 1002.9
20260506144633 16 355 0.0 0.0 0.00 0.43 0.00 85 1002.9
20260506143633 17 355 1.6 0.0 0.00 0.43 0.00 74 1002.9
20260506142633 17 355 8.0 0.0 0.00 0.43 0.00 68 1002.9
20260506141633 18 355 11.3 0.0 0.00 0.43 0.00 66 1002.9
20260506140633 18 355 0.0 0.0 0.00 0.43 0.00 66 1003.0
20260506135633 18 355 0.0 0.0 0.00 0.43 0.00 60 1003.0
20260506134633 18 355 0.0 0.0 0.00 0.43 0.00 61 1003.0
20260506133633 20 355 0.0 0.0 0.00 0.43 0.00 62 1003.0
20260506132633 18 355 0.0 0.0 0.00 0.43 0.00 63 1003.0
20260506131633 20 355 4.8 0.0 0.00 0.43 0.00 59 1003.0
20260506130633 20 355 11.3 0.0 0.00 0.43 0.00 59 1003.0
20260506125633 20 355 0.0 0.0 0.00 0.43 0.00 56 1003.0
20260506124633 20 355 0.0 0.0 0.00 0.43 0.00 57 1003.0
20260506123633 20 355 6.4 0.0 0.00 0.43 0.00 55 1004.0
20260506122633 21 355 3.2 0.0 0.00 0.43 0.00 53 1004.0
20260506121633 21 355 9.7 0.0 0.00 0.43 0.00 55 1004.0
20260506120633 22 355 1.6 0.0 0.00 0.43 0.00 49 1004.0
20260506115633 22 0 1.6 0.0 0.00 0.43 0.00 56 1004.0
20260506114633 20 355 4.8 0.0 0.00 0.43 0.00 57 1004.0
20260506113633 21 355 11.3 0.0 0.00 0.43 0.00 57 1004.0
20260506112633 21 355 9.7 0.0 0.00 0.43 0.00 58 1004.0
20260506111633 22 355 9.7 0.0 0.00 0.43 0.00 56 1004.0
20260506110633 20 355 6.4 0.0 0.00 0.43 0.00 59 1004.0
20260506105633 18 355 0.0 0.0 0.00 0.43 0.00 65 1004.0
20260506104634 18 355 8.0 0.0 0.00 0.43 0.00 64 1004.0
20260506103633 18 355 1.6 0.0 0.00 0.43 0.00 66 1005.1
20260506102633 17 355 9.7 0.0 0.00 0.43 0.00 70 1005.1
20260506101633 17 355 8.0 0.0 0.00 0.43 0.00 73 1005.1
20260506100633 17 355 4.8 0.0 0.00 0.43 0.00 74 1005.1
20260506095633 17 355 1.6 0.0 0.00 0.43 0.00 74 1005.1
20260506094633 17 355 6.4 0.0 0.00 0.43 0.00 76 1005.1
20260506093633 17 355 0.0 0.0 0.00 0.43 0.00 76 1005.1
20260506092633 17 350 6.4 0.0 0.00 0.43 0.00 77 1005.1
20260506091633 17 355 9.7 0.0 0.00 0.43 0.00 82 1005.1
20260506090633 17 355 0.0 0.0 0.00 0.43 0.00 83 1005.1
20260506085633 16 355 1.6 0.0 0.00 0.43 0.00 83 1005.1
20260506084633 16 355 1.6 0.0 0.00 0.43 0.00 84 1005.1
20260506083633 15 355 6.4 0.0 0.00 0.43 0.00 86 1005.1
20260506082633 15 355 6.4 0.0 0.00 0.43 0.00 87 1005.1
20260506081633 15 355 6.4 0.0 0.00 0.43 0.00 89 1005.1
20260506080633 15 355 6.4 0.0 0.00 0.43 0.00 92 1005.1
20260506072633 12 355 6.4 0.0 0.00 0.43 0.00 98 1005.1
20260506071633 12 350 3.2 0.0 0.00 0.43 0.00 99 1005.1
20260506070633 12 350 9.7 0.0 0.00 0.43 0.00 100 1005.1
20260506061633 11 345 6.4 0.0 0.00 0.43 0.00 100 1005.1
20260506060633 11 345 1.6 0.0 0.00 0.43 0.00 100 1005.1
20260506050633 8 315 0.0 0.0 0.00 0.43 0.00 100 1005.1
20260506044633 8 315 0.0 0.0 0.00 0.43 0.00 100 1005.1
20260506043633 8 315 0.0 0.0 0.00 0.43 0.00 100 1005.1
20260506042633 8 320 0.0 0.0 0.00 0.43 0.00 100 1005.1
20260506041633 7 320 0.0 0.0 0.00 0.43 0.00 100 1005.1
20260506040633 7 320 0.0 0.0 0.00 0.43 0.00 100 1005.1
20260506035633 7 320 0.0 0.0 0.00 0.00 0.00 100 1005.1
20260506034633 7 320 0.0 0.0 0.00 0.00 0.00 100 1005.1
20260506033633 7 320 0.0 0.0 0.00 0.00 0.00 100 1005.1
20260506032633 8 325 0.0 0.0 0.00 0.00 0.00 100 1005.1
20260506031633 8 325 0.0 0.0 0.00 0.00 0.00 100 1005.1
20260506030633 8 320 0.0 0.0 0.00 0.00 0.00 100 1005.1
20260506025633 8 320 0.0 0.0 0.00 0.00 0.00 100 1005.1
20260506024633 8 325 0.0 0.0 0.00 0.00 0.00 100 1005.1
20260506023633 8 325 0.0 0.0 0.00 0.00 0.00 100 1005.1
20260506022633 8 330 0.0 0.0 0.00 0.00 0.00 100 1006.1
20260506021633 8 330 0.0 0.0 0.00 0.00 0.00 100 1005.1
20260506020633 8 330 0.0 0.0 0.00 0.00 0.00 100 1005.1